Total_Precipitation_Accumulation
1.43 1.43 1.46 1.42 1.43 1.49 1.61 1.79 1.99 1.80 1.33 0.98 0.88 0.85 0.87 0.87 0.90 0.82 0.72 0.79 0.79 0.79 0.83 0.84 0.86 0.92 0.97 1.06 1.19 1.29 1.36 1.46 1.54 1.62 1.69 1.77 1.92 2.14
1.27 1.30 1.30 1.28 1.34 1.40 1.48 1.57 1.74 1.84 1.54 1.03 0.85 0.80 0.85 0.84 0.87 0.78 0.71 0.80 0.76 0.75 0.77 0.79 0.79 0.80 0.84 0.89 0.96 1.04 1.10 1.17 1.28 1.43 1.57 1.68 1.77 1.90
1.12 1.15 1.12 1.10 1.17 1.20 1.26 1.34 1.43 1.55 1.51 1.06 0.85 0.81 0.82 0.79 0.76 0.71 0.66 0.65 0.62 0.68 0.69 0.72 0.75 0.75 0.78 0.83 0.88 0.94 0.98 1.03 1.14 1.26 1.39 1.51 1.61 1.64
1.01 1.07 1.07 1.04 1.05 1.09 1.15 1.15 1.16 1.21 1.28 1.11 0.83 0.74 0.71 0.67 0.66 0.66 0.62 0.59 0.54 0.61 0.64 0.67 0.75 0.78 0.76 0.76 0.78 0.84 0.90 0.96 1.02 1.08 1.16 1.24 1.34 1.47
0.91 0.99 1.04 1.08 1.08 1.09 1.10 1.09 1.08 1.11 1.18 1.19 0.92 0.74 0.69 0.66 0.67 0.64 0.63 0.62 0.56 0.60 0.62 0.62 0.65 0.71 0.73 0.74 0.75 0.77 0.80 0.86 0.94 0.99 1.05 1.12 1.20 1.31
0.91 0.95 1.00 1.04 1.01 0.99 1.02 0.99 1.02 1.08 1.11 1.17 1.08 0.90 0.76 0.67 0.71 0.72 0.71 0.66 0.65 0.64 0.71 0.70 0.69 0.69 0.71 0.71 0.69 0.68 0.69 0.77 0.90 1.04 1.15 1.21 1.22 1.24
1.01 0.98 0.98 1.02 1.01 0.98 0.98 0.98 1.01 1.09 1.17 1.24 1.17 1.00 0.85 0.75 0.69 0.65 0.72 0.71 0.71 0.66 0.70 0.70 0.72 0.72 0.73 0.77 0.80 0.80 0.81 0.88 1.00 1.14 1.25 1.33 1.35 1.37
1.01 0.93 0.90 0.94 0.93 0.96 0.98 0.98 1.05 1.17 1.27 1.33 1.25 1.07 0.84 0.75 0.75 0.86 0.96 1.07 0.99 0.70 0.73 0.83 0.90 0.97 0.92 0.89 0.97 1.00 1.02 1.07 1.13 1.19 1.26 1.33 1.36 1.37
0.91 0.86 0.81 0.79 0.84 0.78 0.84 0.91 0.95 1.07 1.17 1.20 1.15 0.93 0.81 0.76 0.92 1.08 1.10 1.13 0.99 0.79 0.92 1.07 1.01 0.99 0.92 0.95 1.10 1.04 1.01 1.03 1.07 1.12 1.16 1.20 1.24 1.25
0.80 0.76 0.74 0.73 0.74 0.81 0.88 0.94 0.87 0.82 0.84 0.83 0.83 0.79 0.79 0.85 1.05 1.27 1.35 1.37 1.17 0.99 0.97 1.09 0.95 0.87 0.82 0.86 0.99 0.99 0.94 0.97 1.03 1.09 1.12 1.15 1.16 1.15
0.74 0.73 0.74 0.71 0.79 0.95 1.00 1.01 0.87 0.73 0.74 0.82 0.89 0.88 0.91 0.96 1.04 1.30 1.54 1.66 1.43 1.02 0.86 0.92 0.87 0.86 0.84 0.82 0.89 0.99 0.97 0.96 1.01 1.04 1.06 1.09 1.15 1.18
0.74 0.73 0.80 0.79 0.89 1.02 0.97 0.97 0.90 0.74 0.70 0.72 0.75 0.77 0.72 0.75 0.92 1.07 1.48 1.90 1.64 1.23 0.84 0.90 0.94 1.07 1.26 0.90 0.79 0.86 0.90 0.93 0.95 0.98 1.01 1.06 1.10 1.10
0.82 0.74 0.74 0.91 1.00 1.04 0.95 0.80 0.81 0.88 0.81 0.73 0.72 0.72 0.71 0.72 0.76 0.82 1.08 1.74 2.06 1.58 0.94 1.25 1.44 1.19 1.35 1.04 0.82 0.84 0.89 0.96 1.02 1.03 1.07 1.09 1.10 1.17
0.78 0.70 0.73 0.91 0.92 0.88 0.82 0.82 0.90 0.86 0.74 0.76 0.76 0.74 0.73 0.74 0.77 0.82 0.88 1.06 1.40 1.56 1.22 1.47 1.86 1.46 1.52 1.25 0.92 0.88 0.94 1.09 1.24 1.22 1.17 1.26 1.24 1.24
0.75 0.79 0.84 0.86 0.81 0.76 0.79 0.82 0.80 0.75 0.80 0.88 0.85 0.78 0.75 0.80 0.86 0.92 0.93 0.95 1.03 1.09 1.10 1.18 1.47 1.49 1.63 1.54 1.17 1.00 1.10 1.19 1.35 1.53 1.49 1.37 1.25 1.23
0.78 0.79 0.77 0.75 0.73 0.74 0.80 0.78 0.72 0.76 0.93 0.98 0.89 0.82 0.82 0.90 0.94 1.01 1.15 1.17 1.24 1.18 1.09 1.05 1.13 1.40 1.49 1.22 1.28 1.23 1.24 1.52 1.58 1.77 1.74 1.50 1.30 1.17
0.77 0.67 0.63 0.65 0.67 0.66 0.66 0.69 0.72 0.77 0.86 0.88 0.93 0.94 0.93 1.01 1.10 1.20 1.36 1.44 1.47 1.28 1.11 0.97 0.93 1.01 1.16 1.23 1.27 1.16 1.23 1.49 1.71 1.83 1.84 1.70 1.49 1.30
0.73 0.65 0.61 0.60 0.61 0.63 0.64 0.66 0.70 0.76 0.85 0.98 1.03 1.06 1.12 1.20 1.28 1.33 1.46 1.57 1.50 1.25 1.07 0.93 0.89 0.97 1.00 1.00 1.10 1.23 1.31 1.51 1.67 1.69 1.58 1.61 1.59 1.37
0.60 0.57 0.58 0.58 0.59 0.61 0.66 0.71 0.75 0.76 0.91 1.11 1.21 1.26 1.34 1.39 1.45 1.49 1.50 1.48 1.33 1.14 1.01 0.92 0.99 1.29 1.32 0.99 0.82 1.05 1.48 1.61 1.53 1.51 1.39 1.33 1.44 1.31
0.52 0.52 0.52 0.55 0.60 0.65 0.70 0.79 0.85 0.88 0.99 1.14 1.23 1.29 1.39 1.52 1.56 1.50 1.41 1.34 1.24 1.05 0.88 0.78 0.87 1.27 1.69 1.49 1.20 1.08 1.21 1.49 1.58 1.53 1.28 1.15 1.21 1.20
0.48 0.48 0.49 0.54 0.61 0.68 0.75 0.84 0.95 1.06 1.15 1.29 1.34 1.36 1.43 1.60 1.57 1.39 1.25 1.14 1.08 0.96 0.84 0.68 0.68 0.90 1.23 1.40 1.31 1.11 1.17 1.29 1.43 1.64 1.52 1.42 1.28 1.16
0.50 0.50 0.50 0.54 0.62 0.69 0.77 0.88 1.01 1.08 1.17 1.27 1.33 1.36 1.42 1.52 1.48 1.24 1.06 1.01 0.93 0.87 0.81 0.69 0.64 0.75 1.02 1.34 1.23 1.02 1.03 1.06 1.05 1.06 1.24 1.54 1.90 1.93
0.56 0.58 0.58 0.60 0.65 0.73 0.82 0.89 1.01 1.10 1.19 1.31 1.34 1.31 1.29 1.24 1.08 1.02 0.96 0.94 0.94 0.88 0.83 0.79 0.73 0.76 0.87 0.99 1.09 1.02 0.93 0.90 0.87 0.98 1.22 1.21 1.25 1.42